Regional Weather Roundup
Issued by NWS Newport/Morehead, NC

Current Version | Previous Version | Graphics & Text | Print | Product List | Glossary Off
Versions: 1 2 3 4 5 6 7 8 9 10 11 12 13 14 15 16 17 18 19 20 21 22 23 24 25 26 27 28 29 30 31 32 33 34 35 36 37 38 39 40 41 42 43 44 45 46 47 48 49 50

835
ASUS42 KMHX 110713
RWRMHX
WEATHER ROUNDUP FOR EASTERN NORTH CAROLINA
NATIONAL WEATHER SERVICE NEWPORT/MOREHEAD CITY NC
200 AM EST THU FEB 11 2016

NOTE: "FAIR" INDICATES FEW OR NO CLOUDS BELOW 12,000 FEET
WITH NO SIGNIFICANT WEATHER AND/OR OBSTRUCTIONS TO VISIBILITY

NCZ015>017-031-032-045>047-102-103-110800-
NORTH COAST

CITY           SKY/WX    TMP DP  RH WIND       PRES   REMARKS
EDENTON        PTCLDY    30  10  42 NW13G23   30.06R WCI  20
ELIZABETH CITY CLEAR     26  10  50 W14       30.03R WCI  14
KITTY HAWK     SUNNY     29  10  44 NW13G26   30.00R WCI  19
MANTEO         CLEAR     29   9  42 NW16G26   30.03R WCI  18

$$

NCZ045>047-081-094-103-104-110800-
CENTRAL COAST

CITY           SKY/WX    TMP DP  RH WIND       PRES   REMARKS
FRISCO         CLEAR     33  14  45 NW17G26   30.04R
SWANQUARTER      N/A     30 N/A N/A NW15G25   30.03S WCI  19

$$

NCZ095-097-098-100-101-110800-
SOUTHERN COAST

CITY           SKY/WX    TMP DP  RH WIND       PRES   REMARKS
BEAUFORT       CLEAR     31  18  58 W10       30.09R
CEDAR ISLAND     N/A     30 N/A N/A W16G30    30.12R WCI  19
JACKSONVILLE   PTCLDY    28  17  63 W6        30.10R
PINEY ISLAND   SUNNY    N/A N/A N/A W12       30.08R
WILMINGTON     CLEAR     30  17  58 W6        30.11S


$$

NCZ011>013-027>030-043-044-078>080-089-090>093-098-110800-
COASTAL PLAIN

CITY           SKY/WX    TMP DP  RH WIND       PRES   REMARKS
AHOSKIE        PTCLDY    25   5  42 NW5       30.06S
CLINTON        CLEAR     28  14  55 CALM      30.11S
ELIZABETHTOWN  CLEAR     27  15  61 CALM      30.11S
GOLDSBORO      PTCLDY    28   9  43 W7        30.07S
GREENVILLE     PTCLDY    28  12  50 CALM      30.10R
HAVELOCK       CLEAR     29  18  63 W7        30.10R
KENANSVILLE    CLEAR     25  18  74 CALM      30.11S
KINSTON        CLEAR     28  11  47 W3        30.10R
NEW BERN       CLEAR     29  11  47 W7        30.10R
RICHLANDS      PTCLDY    27  12  54 W3        30.10S
ROCKY MOUNT    CLEAR     26  10  50 W3        30.08R
WASHINGTON     CLEAR     28  11  50 NW8       30.08R
WHITEVILLE     CLEAR     29  18  64 CALM      30.11S

$$

AMZ130-135-150-152-154-156-158-170-250-252-270-ANZ085-086-088-633-658-670-110800-
MARINE OBSERVATIONS

STATION/POSITION TIME  TEMP    WIND        PRES    WAVE   SWELL
                       AIR SEA DIR/SP/G            HT/PER HT/PER
                 (UTC) (F)     (DEG/KT/KT) (MB)    (FT/S) (FT/S)
CHESAPEAKE LIGHT 0700   31     320/ 25/ 28 1015.4
64 E VA BEACH    0650   35 49  310/ 27/ 33 1012.7    9/ 7   2/13
DUCK             0600   30     290/ 22/ 28 1015.3
2 E DUCK         0611      44                N/A     3/14   2/14
OREGON INLET     0600   32 43  280/ 18/ 27 1015.9
13E OREGON INLT  0600      46                N/A     5/ 4   2/13
HATTERAS CG      0600   35 48  290/ 24/ 29 1016.2
DIAMOND BUOY     0650   39 71  300/ 27/ 33 1016.4    8/ 7   2/13
CAPE LOOKOUT     NOT AVBL
BEAUFORT LAB     0600   33 46  290/  7/ 13 1017.4
30 SE NEW RVR IN 0608   40 59              1018.2
30 SE NEW RVR IN 0625      59                N/A     8/ 7   2/13
27 SE WRIGHTSVLE 0608   41 60  360/ 25/ 33 1016.9
5 SE WRIGHTSVLE  0608   37 51  280/ 19/ 27 1019.4
225 S CAPE HAT   0650   52 68  290/ 25/ 33   N/A    15/ 9
41 SE CHARLESTON 0650   46 63  280/ 25/ 31 1020.3    8/ 7

$$




USA.gov is the U.S. government's official web portal to all federal, state and local government web resources and services.